ECMWFFLT1_925_spd_021.txt.gz
Wind_Speed
10 11 11 11 10 9 8 8 8 8 8 7 6 4 4 5 5 4 3 2 3 3 3 3 4 4 3 3 3 3 5 6 7 7 7 9 8 7 6 5 6 6 7 6 5 5 6 6 7 10 14 18 20 19 18 18 18 17 17 17 16 14 14
8 9 10 9 10 10 10 10 10 9 9 7 5 4 4 5 5 5 4 2 3 4 5 5 5 6 4 3 3 4 5 5 6 6 6 8 8 9 9 8 8 8 6 5 5 5 6 7 6 8 11 16 19 18 17 18 19 20 20 19 18 17 17
10 9 9 9 9 10 10 11 10 10 9 7 5 4 4 4 4 4 4 2 3 5 7 8 7 6 4 4 4 5 6 5 5 5 6 8 8 9 10 9 8 8 6 6 6 6 6 6 6 8 9 11 13 13 14 15 16 17 18 19 18 18 18
10 10 10 10 10 10 10 10 10 9 9 7 5 5 4 4 3 3 3 3 5 6 8 9 8 7 7 7 7 7 7 7 7 7 8 8 8 8 9 8 7 7 7 7 7 8 7 7 7 8 9 10 12 11 12 14 14 14 15 16 17 17 17
9 9 10 10 10 10 9 9 9 8 8 7 6 6 5 4 3 2 2 3 5 6 7 7 7 7 8 10 10 10 10 10 11 11 11 11 10 11 10 9 9 8 7 8 8 7 7 9 9 8 9 10 10 10 9 11 13 14 15 15 15 16 16
8 8 8 8 9 9 8 8 7 7 7 7 7 6 5 4 3 2 2 3 4 5 5 6 6 7 9 10 12 12 13 14 14 15 15 15 15 14 14 13 13 11 10 9 8 8 8 9 9 9 9 8 8 9 7 6 8 11 13 14 13 14 15
7 8 8 7 6 7 7 7 6 6 7 8 8 7 5 4 3 3 3 4 4 4 4 4 5 7 9 9 10 12 13 14 15 15 16 16 15 14 14 13 12 11 11 10 9 9 9 9 10 11 10 8 8 9 7 6 6 7 10 12 12 13 14
6 7 7 5 3 5 7 7 6 5 7 8 8 7 5 5 4 5 5 4 4 4 3 4 5 7 7 8 9 10 12 13 13 14 14 14 13 12 11 12 12 12 12 11 10 9 8 8 9 12 12 9 7 6 7 6 7 7 7 8 11 12 12
7 5 3 3 5 7 8 7 6 6 8 9 8 6 5 5 6 6 5 4 4 3 2 3 4 6 6 6 8 9 11 12 12 12 13 13 13 12 13 14 15 15 14 13 13 13 12 11 10 10 9 8 7 5 5 5 5 7 6 5 7 10 11
8 6 7 8 8 8 7 6 7 7 9 9 8 7 5 5 6 6 6 5 5 5 4 3 3 4 5 5 7 9 10 10 10 11 12 13 14 14 15 16 17 17 16 15 15 15 15 15 13 9 6 6 6 5 4 3 3 4 5 5 5 7 9
8 7 10 10 8 7 7 7 8 8 8 9 8 7 5 5 5 5 6 6 6 7 7 6 5 4 4 6 7 9 9 10 10 12 13 14 15 16 16 17 18 17 16 15 14 13 14 15 14 13 10 7 5 5 5 4 3 3 4 5 5 6 7
10 10 12 12 10 9 8 9 10 9 8 8 7 7 6 5 5 5 5 5 6 7 8 7 7 7 6 7 8 9 9 9 11 12 13 13 14 15 16 17 16 15 14 12 12 11 11 12 12 12 12 11 9 8 6 4 4 3 2 4 5 6 7
14 15 13 12 11 11 10 10 12 11 9 8 7 7 7 6 6 6 5 5 5 5 6 6 7 7 7 7 8 8 8 8 10 11 12 12 12 13 13 13 13 12 11 10 10 10 10 11 11 10 10 10 10 9 6 5 6 5 3 3 4 4 6
17 16 13 12 13 14 12 11 13 12 9 8 8 7 7 7 7 6 6 6 5 4 4 4 5 5 6 6 7 8 8 8 8 10 11 10 10 10 10 11 10 9 9 9 9 10 10 10 10 10 9 9 8 7 6 6 7 6 5 3 3 4 5
17 16 14 14 16 16 13 11 13 12 10 9 9 9 8 7 7 7 6 6 5 5 4 3 4 4 4 4 5 5 6 6 6 7 9 9 9 9 9 9 9 9 8 8 8 9 9 9 9 8 8 8 8 7 6 6 6 6 6 4 3 3 5
17 15 14 15 18 17 13 10 10 11 10 10 10 10 9 8 7 6 6 5 5 4 4 4 4 4 4 3 3 3 4 4 4 5 6 7 7 7 6 6 7 8 8 8 8 8 9 8 7 7 8 8 8 8 7 6 6 6 6 5 4 2 3
16 16 15 16 18 17 13 10 9 9 11 11 11 11 10 10 9 8 7 5 4 4 3 4 4 4 4 3 3 3 4 4 4 4 5 5 5 5 5 5 5 6 7 7 7 7 8 8 7 7 8 8 8 7 7 7 6 6 5 5 4 3 2
16 18 17 16 17 16 13 11 10 9 11 12 11 11 11 11 10 8 7 6 5 3 3 3 3 4 4 4 4 5 5 5 6 6 6 6 6 6 6 6 6 6 7 7 7 7 7 7 7 7 7 7 6 5 6 6 6 6 5 5 4 3 2
16 17 17 16 17 15 13 12 11 10 11 12 12 11 10 10 8 7 6 5 5 4 3 3 3 3 3 4 4 5 5 6 7 7 8 8 8 8 8 8 9 9 8 8 7 6 7 7 7 6 6 6 5 4 4 5 5 5 5 4 3 3 2
16 17 16 16 16 16 15 13 13 12 12 12 12 11 10 9 8 6 5 5 5 4 3 2 3 3 3 4 5 5 6 7 8 9 9 9 10 10 11 12 12 11 10 10 10 10 9 9 8 7 6 5 5 4 4 4 4 4 4 3 2 2 1
15 15 14 15 16 16 16 15 15 15 14 14 13 13 12 10 10 8 6 5 6 6 5 5 4 4 5 7 7 8 9 9 10 11 12 12 12 12 13 14 13 12 13 13 14 15 14 11 10 9 8 6 5 4 3 3 3 3 2 2 1 2 1
13 13 13 14 15 15 15 16 17 18 17 17 18 18 17 16 15 13 11 9 9 8 8 8 7 7 9 10 11 11 13 13 14 15 15 15 15 14 14 16 15 15 15 15 15 17 16 13 11 10 9 7 6 4 4 3 2 1 1 1 2 3 4
12 13 13 13 14 15 15 17 18 20 20 21 22 21 20 19 18 16 15 14 13 10 9 10 9 9 12 14 14 14 15 16 15 15 16 16 16 15 15 17 17 16 16 16 16 17 16 14 13 11 9 8 7 5 5 4 2 0 1 2 2 4 6
13 14 14 15 15 16 17 19 20 21 22 22 22 21 20 20 19 19 19 19 18 15 11 10 9 10 12 14 15 14 15 15 15 15 16 16 16 15 14 15 15 15 15 15 14 14 14 15 15 13 10 8 7 6 5 4 2 1 1 2 1 2 5
13 15 15 15 15 15 17 17 17 19 22 22 21 20 20 20 20 21 21 22 22 21 16 12 12 14 15 16 15 15 15 16 16 16 16 16 15 13 12 13 14 13 12 11 11 11 12 14 16 15 12 10 9 7 5 4 3 2 3 3 3 3 4
12 14 13 12 11 11 12 12 12 14 18 19 18 17 19 22 21 21 22 24 25 24 21 19 17 16 16 15 14 13 13 13 13 14 15 15 14 12 12 11 11 11 9 8 7 8 10 14 16 15 13 12 10 7 5 4 3 4 5 4 4 4 5
11 13 13 12 11 10 9 9 10 12 14 14 14 13 15 19 20 20 21 21 21 21 19 16 14 14 13 12 10 10 9 9 10 11 12 12 12 11 10 9 7 6 6 6 5 6 9 14 17 17 14 13 10 7 5 4 5 5 5 5 4 4 5
9 10 12 13 14 14 12 11 12 14 14 13 12 12 13 15 17 18 17 17 17 15 12 10 11 12 11 10 8 6 6 7 8 9 9 9 8 7 6 6 5 4 4 4 4 5 10 16 18 17 14 11 8 5 4 5 5 4 4 5 5 5 5
6 7 8 10 13 14 13 13 13 14 15 13 12 13 14 14 15 15 16 16 15 12 10 11 13 13 12 11 8 5 5 6 6 6 5 4 3 3 2 3 3 3 3 3 3 5 11 16 16 14 11 8 6 5 4 4 4 4 5 5 5 5 6
5 5 5 6 9 10 10 10 10 10 11 11 11 12 13 14 14 14 14 14 12 11 13 15 15 14 13 11 8 5 5 5 5 5 4 5 5 5 5 4 4 3 3 4 6 9 11 12 11 9 8 6 5 5 4 4 4 5 6 5 5 6 7
5 6 6 7 8 9 9 9 9 9 10 10 10 11 11 11 11 10 10 9 10 12 15 15 14 13 13 11 8 6 6 6 7 7 7 7 7 6 7 6 6 5 6 8 9 10 9 8 7 6 6 5 5 4 4 4 4 5 5 5 6 7 8
7 6 7 8 9 11 11 10 10 9 10 11 11 11 11 12 13 12 11 11 11 12 14 14 13 12 12 11 9 8 8 9 9 9 9 10 10 9 9 9 8 7 8 9 9 9 8 6 5 5 4 4 5 4 4 4 3 2 3 4 6 8 9
10 9 8 9 11 13 12 11 11 11 11 13 13 13 14 14 15 14 13 12 11 11 11 11 12 12 12 11 10 9 10 11 12 12 13 13 13 13 12 11 10 9 8 9 8 7 6 5 3 3 3 3 4 4 4 4 3 3 4 5 7 9 10
13 12 11 11 13 14 13 13 13 13 13 14 14 15 15 15 15 15 14 13 12 11 10 11 12 12 12 12 11 11 11 11 13 14 14 14 13 14 13 12 11 9 7 7 7 6 5 4 3 3 4 4 4 4 3 2 4 5 6 7 9 10 10
13 14 13 12 13 15 16 16 16 15 15 16 16 17 17 17 17 17 15 14 14 13 12 12 12 13 13 13 12 12 11 11 11 11 13 14 13 13 13 13 11 10 8 6 6 5 4 4 3 3 3 3 2 2 1 2 4 5 5 6 8 9 9
14 13 13 12 12 15 18 19 19 19 19 19 20 20 20 19 17 17 16 15 14 13 13 13 12 12 12 13 13 12 11 10 10 10 11 13 14 14 14 13 11 10 8 7 6 5 4 3 2 2 1 0 2 3 4 4 5 6 6 7 8 9 9
16 15 14 12 11 13 18 21 21 22 22 22 23 23 22 21 19 18 17 16 14 13 13 13 13 12 12 12 13 12 11 11 11 10 11 13 14 14 14 13 12 10 8 7 6 4 3 2 2 1 2 3 5 6 6 5 6 7 7 8 8 9 9

ECMWFFLT1_925_spd_024.txt.gz
Wind_Speed
9 9 8 8 7 7 7 7 6 5 4 4 3 3 3 4 4 3 3 3 2 2 2 2 3 3 4 5 6 6 6 7 9 9 8 7 6 6 6 6 5 4 5 6 5 5 6 5 6 7 8 10 10 11 10 10 10 10 9 9 9 10 10
9 9 9 8 8 8 8 7 6 6 4 3 3 3 3 3 3 3 2 3 3 2 3 2 3 3 4 4 5 6 6 6 7 8 8 8 6 6 7 7 6 6 6 5 5 5 6 6 6 7 8 8 9 10 10 10 10 10 10 10 10 10 10
11 10 9 9 8 9 9 8 7 6 5 3 3 3 3 3 3 3 2 3 4 4 4 4 4 4 3 4 4 5 6 7 6 6 7 7 6 7 7 7 7 7 7 7 7 7 7 7 6 8 9 8 8 9 8 9 9 9 9 9 9 10 10
12 11 10 9 9 9 10 9 7 5 5 4 3 4 4 3 4 3 3 4 5 5 4 4 4 3 3 3 4 5 5 6 6 6 7 7 6 7 6 6 6 6 6 7 8 8 7 6 6 7 9 9 9 9 8 8 8 8 9 9 9 9 9
12 11 11 10 10 10 10 9 7 6 5 4 4 5 4 4 4 3 3 5 6 5 4 4 4 4 3 3 3 4 4 5 6 6 7 8 7 7 6 5 5 5 5 5 7 7 6 6 7 6 8 9 8 9 10 8 8 8 8 8 9 9 9
11 10 11 11 10 10 9 9 8 7 5 5 5 5 5 4 4 4 4 5 6 5 5 5 5 5 4 4 4 5 5 5 5 6 7 8 7 7 7 6 5 5 4 4 5 5 5 7 7 6 7 8 7 8 9 8 8 8 8 8 8 8 9
9 10 10 10 10 10 9 9 8 7 6 6 6 6 5 4 5 6 5 6 6 6 6 6 6 5 4 5 5 6 6 6 6 7 8 8 7 6 6 5 6 5 5 5 5 5 6 6 7 6 6 7 6 7 8 7 7 6 7 7 7 8 8
9 9 9 10 10 9 9 8 8 8 7 7 7 6 5 6 7 8 7 7 7 6 6 6 6 6 5 5 6 6 7 7 7 8 8 8 7 6 5 5 6 6 6 5 5 5 5 5 6 6 6 6 5 5 6 6 6 5 6 6 7 7 7
9 9 9 10 10 9 9 8 8 8 8 9 8 7 6 7 8 9 8 8 7 7 7 6 6 6 5 6 6 6 6 6 6 6 6 7 6 6 6 6 7 7 7 6 5 5 4 4 6 6 6 6 5 4 5 5 5 5 4 4 6 7 6
11 11 10 10 10 10 9 8 9 9 9 10 9 8 8 8 9 9 9 9 8 8 7 6 6 6 5 6 6 6 6 5 6 6 5 6 6 7 7 7 8 8 8 7 7 7 6 5 6 6 5 5 4 4 4 4 4 5 4 3 4 6 5
12 11 11 12 11 10 10 9 9 9 9 10 10 9 9 9 10 9 9 9 9 10 9 8 7 6 6 6 7 6 6 5 6 6 6 7 7 7 8 8 8 8 8 8 8 7 7 7 6 5 4 3 2 2 3 4 4 4 5 4 4 5 5
12 11 11 12 11 11 10 11 10 10 10 11 11 10 9 9 10 9 9 9 10 10 10 9 8 7 7 8 8 7 7 7 7 7 7 7 7 7 8 8 8 8 7 7 7 7 7 7 7 6 6 5 5 4 3 4 5 3 4 5 5 4 4
12 11 11 11 11 11 10 11 12 11 11 11 11 11 10 10 10 10 10 9 10 10 10 9 9 8 8 8 8 9 8 8 9 9 8 8 7 8 8 8 8 7 7 7 7 6 6 6 6 7 7 7 7 5 3 4 6 6 4 4 4 4 3
12 11 10 10 10 11 11 12 12 11 10 11 11 11 11 10 10 10 10 10 9 9 9 9 9 8 8 8 8 9 9 9 9 9 9 8 8 7 7 7 7 6 6 6 6 6 6 6 6 6 6 6 6 5 4 5 7 7 5 4 4 4 2
10 9 10 10 10 11 12 12 13 11 10 10 11 11 11 11 11 10 10 10 10 9 9 9 8 8 8 8 7 7 7 7 7 7 7 7 7 6 6 6 6 6 5 5 5 5 6 5 5 5 5 5 5 5 4 4 5 6 6 4 4 4 3
9 9 9 9 9 11 12 13 13 12 10 9 10 10 11 12 12 11 11 10 10 10 9 9 9 8 8 8 7 6 6 5 6 6 6 6 6 5 5 4 5 4 4 5 4 4 5 4 3 5 5 5 5 5 4 3 3 4 5 5 4 4 3
7 8 8 8 8 10 12 12 12 12 11 10 10 10 11 12 12 12 12 11 11 10 10 9 9 8 8 8 7 7 6 5 5 5 4 5 5 5 4 4 4 3 3 4 4 4 4 3 3 4 5 5 5 5 4 3 3 3 3 4 3 2 2
6 7 8 8 9 10 11 12 12 12 12 12 11 11 11 11 12 12 12 12 12 11 10 10 9 9 8 7 7 7 6 6 5 5 4 4 4 4 4 4 4 4 3 3 3 3 3 3 3 4 4 4 4 4 3 2 2 1 1 3 3 1 1
6 7 8 9 10 10 11 11 11 11 11 12 12 12 11 11 11 12 12 12 12 12 11 11 10 9 9 8 7 7 7 6 6 6 5 5 5 5 5 4 4 5 5 4 3 3 3 3 3 3 3 3 3 4 3 2 2 1 0 1 2 2 2
7 7 9 10 10 10 10 11 11 11 11 12 13 13 12 12 12 12 13 13 13 13 12 11 11 10 9 9 8 7 6 6 6 6 6 6 6 7 7 7 7 7 7 6 6 5 4 4 4 4 4 3 3 3 3 2 1 1 1 2 2 2 2
5 6 8 9 10 10 10 11 11 12 12 12 12 13 13 14 13 13 13 13 13 13 12 12 11 11 9 8 7 6 6 6 6 6 6 7 7 8 9 9 10 10 10 10 10 9 7 6 6 6 5 5 4 4 3 2 3 3 3 3 3 3 4
3 5 6 8 10 11 11 11 12 13 13 13 13 13 14 15 15 15 15 14 14 13 12 12 12 13 11 9 7 6 5 5 6 6 7 7 8 9 9 9 11 12 12 12 12 11 10 10 9 7 6 5 4 4 4 4 4 5 6 6 6 6 7
3 4 5 7 8 9 10 11 12 13 14 13 13 12 13 15 16 16 16 16 16 14 14 14 15 15 15 12 8 5 5 5 6 7 7 8 8 8 9 9 10 12 13 13 13 12 12 13 13 10 7 7 7 6 5 5 5 5 6 7 7 6 8
2 4 5 6 7 7 8 9 11 12 12 12 12 12 13 14 15 15 15 16 17 17 15 15 16 17 16 13 9 6 4 5 5 6 7 8 8 9 9 9 9 10 11 12 13 13 13 15 16 16 13 11 10 9 7 5 5 4 5 7 7 6 7
2 3 4 5 7 7 8 9 9 11 11 12 12 12 13 15 15 15 15 15 17 18 19 18 17 17 17 15 11 8 6 7 7 8 9 9 9 10 10 9 7 6 7 9 10 10 12 15 17 18 18 15 13 13 11 7 5 2 4 6 7 7 7
2 3 4 5 6 7 8 9 9 10 11 12 13 14 15 16 16 17 17 17 17 18 21 21 20 19 18 17 14 12 10 10 9 9 10 10 10 10 10 7 6 5 6 8 7 7 10 14 17 19 18 16 15 14 12 9 6 4 4 4 6 6 6
2 3 4 5 6 7 8 8 8 9 10 11 13 14 16 17 18 18 18 18 18 18 20 22 23 21 19 18 16 13 10 8 6 7 9 9 8 9 7 5 5 5 5 6 6 8 10 13 16 18 15 13 12 11 8 7 5 4 4 3 4 5 4
3 3 3 5 6 8 9 9 9 9 9 10 11 12 14 15 15 16 16 16 16 17 20 23 25 23 21 20 17 13 9 7 6 8 10 9 7 7 6 5 5 5 5 6 8 10 10 11 13 14 12 10 9 8 8 7 5 4 3 2 2 3 3
5 4 4 5 6 7 9 10 11 10 10 11 11 11 12 12 13 13 13 14 14 14 16 20 23 22 20 19 17 13 11 11 10 9 8 7 5 5 5 5 5 6 7 7 9 11 10 11 13 13 12 11 9 9 9 8 6 6 5 5 5 6 7
5 6 6 6 6 6 7 8 9 9 9 10 11 12 13 13 12 12 11 12 13 12 13 17 20 19 19 19 17 14 13 13 12 10 8 6 5 6 7 7 6 6 7 8 9 11 13 14 13 12 12 10 8 7 7 7 6 7 7 8 9 10 10
6 6 7 7 8 8 8 8 8 8 8 8 9 10 12 12 11 11 11 12 13 12 13 17 19 18 19 20 17 13 13 13 12 10 9 8 7 8 10 10 9 8 9 11 12 14 15 13 10 10 10 9 7 6 5 5 5 6 7 8 9 10 11
8 8 8 8 8 9 10 9 8 8 9 8 8 8 9 10 10 10 10 12 14 13 13 17 19 19 20 20 16 12 10 11 12 11 11 10 9 9 10 10 10 9 10 12 13 14 14 11 7 8 8 7 6 6 5 4 4 3 4 6 7 8 10
9 9 9 8 8 9 10 10 10 10 10 9 8 9 9 8 9 9 10 12 13 13 14 19 21 20 19 18 15 11 10 11 11 11 11 11 11 11 11 10 10 10 10 12 13 13 13 11 7 6 5 5 5 5 4 4 4 4 4 5 7 8 9
10 10 11 10 9 9 10 11 11 11 11 10 9 10 10 10 10 10 11 12 13 13 16 20 21 20 19 18 16 13 10 10 11 12 12 12 11 11 11 11 12 11 10 11 12 11 11 11 9 6 4 4 5 5 3 2 4 6 5 6 8 9 9
11 11 11 11 10 10 10 10 11 11 12 11 10 12 13 12 12 12 13 12 13 15 19 20 20 20 20 18 17 15 11 11 13 12 12 12 12 11 11 12 13 13 11 10 11 10 9 9 8 5 4 3 4 3 2 2 3 5 6 7 8 9 9
13 12 11 11 12 11 10 10 11 12 13 13 12 14 15 15 14 14 13 12 13 16 19 20 20 21 19 18 18 17 14 14 14 12 11 12 12 12 12 13 14 13 12 11 10 9 8 7 5 3 2 2 2 2 1 2 3 5 6 7 8 9 9
15 14 13 12 12 13 11 10 11 13 14 15 15 15 15 16 17 16 15 13 12 14 15 17 19 20 18 18 19 18 16 15 15 12 9 11 12 13 14 15 16 14 13 11 10 8 6 4 3 2 1 1 2 3 1 2 4 5 6 7 7 8 8

ECMWFFLT1_925_spd_027.txt.gz
Wind_Speed
11 11 10 9 8 8 7 7 6 5 5 4 4 4 4 4 3 3 3 2 2 1 2 2 3 3 3 3 3 3 2 3 4 4 4 5 7 7 8 7 5 5 7 8 8 6 3 4 7 7 9 11 9 9 10 10 10 10 10 10 10 11 12
12 11 10 9 8 8 7 6 6 5 5 4 3 3 3 3 3 3 3 3 3 3 3 3 4 3 3 3 3 2 2 2 2 2 2 4 4 3 6 7 7 9 10 11 12 9 5 5 6 5 7 8 7 9 9 9 10 10 10 10 10 11 11
11 10 10 10 8 8 7 6 6 5 5 4 3 3 3 3 3 3 3 3 4 5 5 5 4 4 3 3 2 2 1 1 1 1 1 2 3 1 3 6 6 6 6 9 14 11 8 7 7 7 9 9 7 8 8 9 10 10 10 10 10 11 11
11 10 10 9 9 8 7 6 5 5 5 5 4 3 3 3 3 4 4 4 4 5 6 5 5 4 3 3 2 3 3 1 1 1 1 1 1 2 2 1 3 1 3 2 9 11 6 5 8 7 9 10 9 10 8 8 9 9 10 10 9 10 10
10 10 9 8 9 8 7 6 5 5 5 5 5 4 3 3 2 3 4 4 5 6 6 6 6 5 5 4 3 3 3 2 2 2 3 2 0 1 2 5 3 1 1 3 2 10 8 6 8 7 8 10 9 10 9 8 9 9 9 9 9 9 9
9 9 9 8 8 7 7 6 5 5 5 5 5 5 4 3 2 3 4 5 5 5 6 6 7 7 6 7 6 5 4 3 3 3 4 4 2 3 5 4 2 1 3 5 3 4 6 7 7 6 8 9 8 9 10 9 9 9 8 8 8 8 8
9 9 9 8 8 7 6 6 5 5 5 6 5 5 4 4 4 5 5 5 5 5 6 7 7 7 7 8 8 8 7 6 6 6 6 6 6 6 6 5 4 5 6 6 4 5 6 6 5 5 8 8 7 8 9 9 8 8 8 8 7 7 7
10 10 9 9 8 7 6 6 5 5 6 7 6 5 5 5 6 6 5 6 5 5 7 7 7 7 8 8 8 8 9 8 8 8 8 8 8 7 6 5 5 5 5 5 4 4 5 6 5 4 6 6 4 5 6 7 8 7 7 7 7 7 6
10 10 10 9 8 7 7 6 6 6 7 8 8 7 7 6 7 7 6 7 6 7 7 6 7 7 7 8 8 8 8 8 8 8 8 8 8 7 6 6 6 6 6 6 6 6 5 5 5 4 5 5 4 4 4 4 6 5 5 5 6 6 5
10 10 11 10 9 9 8 8 8 7 7 9 8 8 8 8 8 7 7 8 7 7 7 6 7 7 7 8 8 8 8 8 8 8 8 8 8 8 7 7 7 8 8 8 8 8 7 6 6 5 3 3 3 4 4 3 4 4 3 3 5 6 5
9 10 11 11 10 10 9 9 9 8 8 9 9 9 9 9 8 8 8 8 8 8 7 7 7 7 7 8 8 8 8 8 8 8 8 8 8 8 8 8 9 9 10 10 10 9 8 7 6 4 2 1 3 1 4 5 4 5 4 4 5 6 5
9 10 11 11 10 9 10 10 10 9 9 9 10 10 10 9 9 8 8 8 8 8 8 7 7 7 8 8 8 8 8 7 8 8 8 8 8 8 9 9 9 10 10 10 10 9 8 7 6 5 5 4 6 6 3 5 5 4 4 4 4 5 4
8 10 10 10 9 10 10 11 11 10 10 10 10 10 10 9 9 8 8 8 8 9 8 8 8 8 8 8 8 8 8 8 8 8 8 8 8 8 9 9 10 9 8 8 9 8 7 7 6 6 6 6 6 6 5 5 6 5 5 4 4 4 3
10 9 9 9 9 10 11 11 11 11 10 10 10 10 10 10 9 9 9 9 9 9 9 9 9 9 8 9 9 9 9 9 9 9 8 8 8 8 8 8 8 7 6 7 6 6 7 6 5 6 5 5 5 4 4 5 7 6 5 3 3 3 2
11 9 9 9 9 10 12 12 12 11 10 10 10 10 10 10 10 10 9 9 9 9 10 10 10 9 9 10 10 9 9 9 10 9 8 8 8 7 7 7 7 5 5 5 3 4 5 4 4 5 4 5 5 4 3 3 5 6 4 3 3 3 2
11 10 9 10 10 11 12 12 12 11 10 10 10 10 10 10 10 10 10 9 10 10 10 10 9 10 10 11 10 9 9 9 9 9 8 8 7 7 6 6 6 4 4 3 1 3 4 0 2 5 5 4 5 4 4 3 2 4 4 3 2 3 3
12 11 10 10 10 11 12 12 12 11 10 10 10 10 10 11 11 11 11 10 10 10 10 10 10 10 11 10 10 9 9 9 9 8 8 8 8 8 7 6 6 5 5 4 2 3 3 1 2 4 4 4 4 4 4 3 3 2 2 2 0 1 1
12 12 11 10 10 10 11 11 12 12 11 11 10 10 10 11 11 11 12 11 11 11 11 11 11 11 10 10 10 10 9 9 9 8 7 7 7 8 7 7 7 6 6 5 4 4 4 3 1 3 3 2 5 4 2 1 2 2 2 1 1 2 3
11 11 11 10 10 10 10 11 12 12 12 12 11 10 11 11 11 12 12 12 13 13 12 12 11 11 11 11 10 10 10 9 9 8 7 7 7 7 7 7 7 7 7 7 6 5 5 4 2 3 3 2 3 5 1 1 1 1 3 4 3 3 2
10 10 10 9 9 10 11 12 13 13 12 12 12 12 12 11 12 12 13 13 14 14 14 14 13 13 12 12 11 11 10 10 9 9 8 8 8 8 8 8 8 8 8 8 7 6 6 5 3 3 2 3 1 3 3 4 2 2 3 4 4 4 2
8 8 9 8 8 9 11 12 13 13 12 12 13 13 13 12 12 13 13 14 14 14 15 15 14 14 14 13 13 12 11 11 10 10 9 9 9 9 9 9 8 9 9 8 8 7 7 7 6 5 5 4 3 3 3 4 3 3 5 5 5 5 5
6 6 7 7 9 10 11 11 12 12 12 12 13 13 13 14 13 14 14 14 14 15 15 15 15 16 15 15 14 13 12 12 12 11 11 11 10 10 10 10 10 10 10 11 10 10 10 10 9 6 6 6 5 3 4 5 5 5 7 7 7 6 6
5 6 6 6 8 11 11 11 11 12 13 13 13 13 14 15 15 16 16 16 16 16 15 15 16 18 17 16 15 14 13 12 12 12 12 12 12 12 12 11 9 9 11 12 12 12 13 14 12 9 6 7 8 5 4 6 7 7 8 7 8 8 7
4 5 6 6 7 9 10 9 10 11 11 12 13 13 14 15 16 16 17 17 17 17 15 16 19 21 20 18 16 15 14 14 13 12 12 12 12 13 14 10 5 5 9 11 13 14 14 15 15 13 10 10 10 8 6 5 6 6 7 7 7 8 8
3 4 5 5 6 6 6 7 7 9 10 11 12 14 14 15 15 14 15 16 16 15 15 17 21 23 22 21 18 15 14 13 13 12 11 12 10 10 11 8 6 9 11 11 14 16 16 17 17 17 16 15 13 12 11 8 4 3 4 5 6 7 8
1 2 3 4 5 5 6 6 6 7 9 10 11 13 14 15 15 14 15 16 17 16 16 18 20 22 23 24 22 18 14 12 13 12 11 11 10 9 8 6 7 11 12 12 14 14 15 17 18 19 20 19 17 15 14 13 11 7 5 4 4 5 6
1 1 1 2 4 5 6 6 6 7 8 10 12 13 15 15 15 14 15 17 17 16 14 15 17 20 23 24 24 21 15 11 12 12 10 10 11 11 10 8 7 10 10 12 15 14 14 15 17 19 20 18 16 15 14 13 12 10 6 4 4 4 2
3 3 2 2 3 5 6 7 8 8 8 10 12 13 15 16 16 17 18 19 20 19 16 15 18 21 23 23 24 22 17 12 11 11 9 10 11 10 9 9 9 10 11 13 15 14 15 14 14 16 16 13 11 11 11 10 9 7 5 3 3 3 2
4 4 4 4 4 5 6 7 9 9 10 11 12 14 16 16 17 21 22 22 22 22 21 20 21 23 24 24 24 22 17 13 12 12 10 10 9 8 8 8 8 10 13 15 15 16 16 13 11 13 13 12 10 10 12 13 11 8 6 5 6 6 7
5 5 5 5 6 6 6 7 8 9 10 12 13 14 15 16 18 20 20 20 20 22 23 23 24 25 25 25 25 22 18 15 13 13 13 12 10 9 8 8 9 11 13 14 15 17 15 11 11 12 12 12 11 9 11 13 11 8 7 8 8 9 10
7 7 7 7 7 7 8 8 8 9 10 11 13 14 14 16 18 17 17 18 19 19 19 19 22 25 25 26 26 22 17 15 14 13 12 11 10 10 11 11 11 11 13 14 14 15 14 12 11 11 12 12 10 8 8 9 8 6 6 7 8 10 11
9 9 9 8 8 8 9 10 10 10 11 11 12 13 13 15 16 16 16 17 19 19 18 16 18 21 22 23 24 21 16 14 13 11 10 10 9 10 13 15 14 12 12 14 14 16 17 14 10 11 12 11 10 9 9 8 6 4 4 5 7 9 10
10 10 10 10 10 10 10 11 11 12 13 13 13 13 13 14 15 15 14 15 16 17 17 18 19 19 18 19 21 20 17 14 12 11 13 13 12 12 13 15 15 13 13 16 18 20 18 12 9 10 10 6 5 7 9 9 7 5 4 6 7 8 9
12 12 12 12 13 12 12 12 12 13 13 14 14 15 14 13 14 14 14 13 13 14 15 17 18 19 19 20 21 20 17 15 17 17 16 15 14 13 14 15 15 15 15 18 20 19 16 12 11 12 8 4 5 8 8 5 4 5 6 7 8 9 9
14 14 14 14 14 14 14 14 14 14 15 15 16 16 15 14 14 14 14 13 12 13 15 16 18 20 22 22 24 20 15 15 20 19 16 15 14 14 14 15 17 17 16 17 18 17 15 13 12 11 8 4 3 4 3 2 3 5 6 7 7 8 9
16 16 16 16 16 16 16 16 16 16 16 16 17 16 16 16 16 15 13 13 13 14 15 16 18 22 24 25 24 18 12 13 17 16 14 15 14 13 15 17 18 17 15 15 16 15 13 12 10 8 6 5 5 5 3 3 4 6 6 6 7 8 9
17 17 17 17 18 18 18 18 18 19 18 18 19 19 18 17 16 14 13 14 14 14 14 16 21 25 25 25 23 17 12 15 17 14 12 13 14 14 16 19 19 17 16 15 14 13 11 10 7 5 4 4 3 2 2 4 5 5 5 6 7 8 7

ECMWFFLT1_925_spd_030.txt.gz
Wind_Speed
9 11 9 8 8 8 8 7 7 7 6 6 6 6 6 6 5 5 3 4 4 5 7 7 5 5 4 6 7 7 6 6 8 8 8 7 7 6 6 6 6 7 8 6 5 6 5 4 7 13 15 17 19 17 15 15 13 12 15 15 13 14 14
10 10 10 8 9 8 7 7 7 7 6 6 6 5 6 6 5 5 4 3 4 4 7 6 5 4 4 5 6 6 5 6 7 8 10 10 8 8 8 6 5 6 6 5 7 7 6 5 4 5 9 13 15 15 14 14 13 13 15 15 13 12 10
11 10 10 9 9 8 6 6 6 6 5 5 6 5 6 6 5 6 7 6 6 7 8 7 6 5 5 5 5 5 6 8 8 9 10 8 7 9 8 6 6 6 5 5 4 5 6 5 6 6 9 10 9 10 13 14 14 13 13 14 15 12 8
10 10 11 9 9 8 7 6 6 6 6 6 5 5 6 6 7 8 8 8 7 7 7 6 6 6 6 6 7 6 7 7 8 10 12 10 9 8 6 8 8 7 6 5 6 7 5 4 6 6 9 13 11 11 13 15 15 14 13 13 13 12 8
10 10 10 9 9 8 7 7 6 6 6 6 6 5 6 6 8 9 8 9 8 8 7 6 7 8 8 8 8 8 9 8 8 10 13 13 12 10 9 11 9 6 8 10 11 11 9 8 8 8 10 14 11 9 13 15 14 15 14 13 12 12 9
10 9 9 9 9 8 7 7 6 7 7 7 7 6 6 6 8 10 10 9 8 7 7 7 8 9 9 11 11 11 11 11 10 11 14 14 12 11 12 12 12 11 9 11 13 12 12 12 10 10 13 15 12 10 12 14 14 14 13 13 13 12 11
12 10 9 8 8 7 6 6 6 7 7 7 8 6 6 7 8 10 11 9 8 8 7 9 10 10 11 12 13 13 14 14 14 14 15 14 12 12 12 11 15 17 15 14 14 14 14 13 11 11 15 13 14 14 14 15 15 13 12 12 11 11 10
15 13 11 9 8 7 6 5 5 7 8 8 8 7 6 7 8 10 10 8 9 9 8 9 10 10 12 13 13 14 15 16 16 15 15 14 13 11 11 11 12 14 16 18 17 15 16 13 8 16 18 9 9 10 10 13 15 13 13 12 10 9 9
17 15 13 11 8 7 6 5 5 7 9 9 8 7 7 8 8 9 10 9 9 9 8 8 9 11 12 12 12 13 14 15 15 15 15 14 13 12 12 13 12 12 13 15 12 10 11 9 9 16 15 10 6 5 5 8 10 11 13 14 12 10 9
17 16 15 13 9 8 7 6 7 8 9 9 8 8 8 9 9 9 10 10 10 9 9 9 9 10 12 11 12 13 13 15 15 15 15 14 13 13 13 14 13 13 13 13 12 12 12 11 11 9 7 8 7 4 4 4 4 7 10 12 13 10 7
17 16 16 14 10 9 8 8 9 9 9 10 9 9 9 9 9 9 10 10 10 9 9 10 9 9 11 11 12 13 14 15 15 15 14 13 13 14 15 16 16 16 15 14 14 13 12 10 8 9 11 13 13 6 8 7 4 7 10 12 12 10 8
17 16 17 14 11 10 9 9 9 9 10 10 9 10 9 9 9 9 10 10 9 9 9 9 9 9 10 11 11 13 13 14 15 15 15 14 14 15 17 17 17 16 14 14 13 13 12 10 9 11 12 14 17 13 16 14 6 6 10 11 9 8 8
17 16 16 14 12 11 10 10 10 10 10 10 9 10 9 9 9 9 9 8 8 9 8 8 8 9 9 10 10 12 12 13 15 15 15 15 15 16 16 16 15 14 13 14 13 13 14 14 13 13 11 12 15 15 19 18 10 7 9 9 7 6 6
16 16 15 14 11 11 11 11 10 10 10 10 9 9 8 8 8 8 7 7 7 7 8 8 8 8 8 9 10 11 11 12 14 14 15 14 15 15 15 14 13 13 14 13 12 12 12 11 10 11 11 11 12 12 15 18 15 10 8 8 7 5 4
16 15 14 13 11 11 12 12 11 11 10 10 9 8 8 8 8 7 7 7 7 7 7 7 7 7 8 10 10 10 11 12 13 14 14 14 14 14 14 13 12 12 11 8 9 11 8 6 9 13 13 12 11 10 9 13 16 13 9 7 6 5 4
16 15 13 12 12 12 13 12 12 11 10 10 9 8 9 8 8 8 8 8 8 7 7 7 7 7 9 9 9 9 11 13 12 12 12 13 12 12 12 11 11 10 9 7 8 9 8 9 13 14 12 10 8 7 8 9 13 15 13 9 7 8 6
17 15 13 12 12 13 13 12 12 11 10 10 9 8 9 9 8 8 8 8 8 8 8 7 7 8 8 8 7 9 11 11 11 10 11 11 10 10 10 10 9 8 7 7 7 7 7 9 11 11 9 7 5 3 4 8 8 9 11 11 8 7 5
16 15 12 11 12 12 13 13 12 11 10 10 9 8 9 9 8 9 9 9 9 9 9 8 8 8 8 7 7 8 9 9 9 9 9 10 10 9 9 9 8 7 7 6 6 5 3 3 6 6 7 9 8 5 4 5 5 2 2 6 8 6 2
14 14 12 12 12 12 12 12 12 12 11 10 9 8 9 9 9 9 9 9 10 10 10 9 9 8 8 8 7 7 8 8 8 7 7 9 9 9 8 8 8 7 6 5 4 4 3 2 4 4 5 7 8 6 5 5 3 2 2 3 3 5 4
14 14 13 12 13 13 12 12 12 12 12 11 9 8 8 8 8 9 9 9 10 10 10 11 10 10 9 8 8 8 8 8 7 7 7 8 8 8 8 8 8 7 6 5 4 5 5 2 2 1 4 5 5 5 5 3 1 2 2 2 2 3 7
12 13 12 12 12 12 13 13 12 12 11 11 10 9 8 8 8 8 9 9 9 10 11 11 11 11 10 10 10 9 9 9 8 8 8 8 8 9 8 7 8 8 7 6 6 6 6 3 2 1 0 1 2 4 4 1 2 1 0 4 5 3 4
9 10 11 11 10 11 12 12 12 11 10 10 10 9 9 9 9 9 9 8 9 9 10 11 11 12 12 12 12 12 11 11 11 10 10 10 10 10 10 10 11 12 10 9 8 7 5 3 3 3 3 3 2 2 2 2 3 2 3 6 7 5 4
7 8 9 9 9 10 10 9 10 9 7 8 9 10 11 11 10 10 10 9 9 9 9 10 11 12 13 13 14 14 14 14 13 13 13 13 12 12 13 14 14 13 12 9 8 8 6 6 6 6 4 4 5 5 3 2 3 4 4 7 8 7 7
6 7 7 6 7 8 8 8 9 8 7 9 11 11 10 10 10 11 10 8 6 5 6 8 10 13 14 14 14 15 15 15 15 15 15 15 15 14 14 14 14 14 12 11 10 10 9 9 10 10 8 6 7 9 7 4 3 3 3 5 7 5 6
6 5 4 4 5 6 7 7 8 8 9 12 13 12 10 10 11 12 12 11 7 5 7 11 12 13 15 16 16 15 15 15 16 16 16 16 16 15 14 13 13 13 12 12 12 12 12 12 12 13 13 11 9 11 10 7 5 3 1 3 4 4 4
5 5 4 4 3 4 5 6 6 7 8 9 12 13 13 13 14 14 16 16 11 7 9 14 17 16 15 17 19 19 17 17 17 17 18 18 16 15 14 12 11 12 12 13 14 16 16 14 13 14 16 15 13 13 13 11 9 7 3 1 3 4 3
5 4 3 3 3 3 5 5 6 6 7 8 11 14 15 15 16 17 18 17 15 12 11 16 21 23 21 20 22 23 21 18 17 19 19 15 10 9 12 15 15 13 13 16 18 18 16 15 14 15 16 17 17 15 14 13 12 11 8 5 1 1 1
9 7 4 2 1 3 4 6 7 8 8 10 12 14 15 16 17 18 19 17 15 15 16 16 20 25 26 25 25 25 25 22 17 16 15 9 5 7 11 16 18 16 16 20 21 19 17 16 14 14 15 17 17 15 14 14 13 12 10 7 5 4 3
13 11 9 7 5 5 4 5 6 7 8 10 12 14 15 16 16 17 19 18 16 16 18 19 21 25 27 26 26 27 29 27 21 17 15 11 9 10 12 16 18 19 20 22 20 17 17 16 14 13 13 14 13 13 14 14 12 11 10 7 7 6 5
17 15 13 11 10 9 7 6 6 6 7 9 11 13 14 15 16 17 19 20 18 18 21 23 25 28 28 27 26 27 30 29 25 20 18 14 13 14 15 17 18 19 20 21 18 15 15 15 14 12 11 13 14 13 13 13 12 11 10 8 7 7 7
17 16 15 14 14 12 11 10 10 9 8 9 10 12 13 14 16 17 19 20 20 20 22 23 24 27 29 29 28 27 29 28 23 19 18 17 15 15 16 17 18 20 21 20 17 16 15 15 13 11 12 16 15 11 11 14 14 12 10 9 7 7 8
14 14 14 14 14 14 13 12 12 13 12 12 12 12 13 14 16 17 18 19 19 20 20 21 22 24 28 31 30 28 28 25 21 19 18 17 16 15 15 17 18 18 19 18 17 17 17 16 13 12 15 18 15 12 12 13 13 12 9 6 5 6 8
15 14 13 14 14 14 14 14 14 15 15 16 15 15 15 15 15 15 16 16 18 20 20 20 22 24 26 27 27 28 28 24 20 18 17 16 16 15 15 15 14 14 17 19 18 17 18 17 15 14 17 17 14 14 13 11 10 9 6 3 3 6 8
16 15 15 16 16 16 16 16 16 17 17 17 17 18 18 18 18 17 15 15 15 17 18 18 19 24 26 23 22 27 29 24 20 18 19 18 17 15 15 15 15 15 17 17 17 17 19 18 15 14 17 15 11 12 13 12 11 9 4 2 3 5 6
17 18 18 18 19 19 19 18 18 18 19 19 19 20 20 19 20 19 16 15 15 16 17 16 16 21 26 23 21 25 27 24 21 21 21 19 18 16 16 19 20 17 15 16 17 19 19 16 13 14 15 14 13 14 12 8 7 5 2 2 3 4 5
18 18 19 19 20 21 21 20 20 20 20 21 21 22 22 21 21 20 17 16 14 13 14 15 15 19 24 24 23 25 26 23 20 20 21 20 20 20 20 22 21 19 17 19 20 20 18 14 13 13 13 12 11 10 8 5 4 4 2 1 3 5 7
18 19 20 21 21 22 22 21 22 21 22 22 22 22 22 21 20 20 18 15 15 14 13 13 15 19 22 23 24 27 27 23 19 20 21 20 21 23 22 22 23 21 21 22 21 19 16 13 11 10 8 7 5 4 4 5 4 3 2 2 4 6 7

ECMWFFLT1_925_spd_033.txt.gz
Wind_Speed
16 15 13 14 15 15 14 12 11 9 8 8 6 6 7 6 5 4 3 2 2 6 5 3 5 6 6 7 9 10 9 8 9 10 14 15 12 8 7 6 7 10 13 13 14 13 7 3 4 6 8 10 11 12 14 16 18 19 19 17 13 10 10
16 16 15 15 15 13 11 11 11 10 10 8 7 7 8 7 6 5 5 5 2 7 7 3 4 5 6 7 8 9 8 7 8 8 11 15 13 11 10 10 11 12 13 14 17 17 11 7 5 4 8 12 12 13 15 19 20 19 17 15 11 9 9
19 17 15 14 13 11 10 11 11 10 10 9 7 8 8 7 7 6 6 7 7 9 8 6 6 5 7 8 8 10 8 7 8 9 11 15 13 13 14 14 14 14 12 11 14 16 11 8 7 6 10 13 12 13 16 18 18 15 13 11 9 9 9
20 17 15 14 13 11 11 11 10 8 9 9 7 7 7 7 7 7 7 9 11 10 8 6 5 5 8 10 9 10 10 8 10 11 12 14 13 15 16 15 17 16 13 11 14 17 13 10 8 6 9 14 14 14 16 16 14 12 11 8 7 8 8
21 18 17 16 14 12 11 11 10 10 10 9 7 7 7 6 6 8 8 9 11 10 8 7 6 6 8 10 10 10 11 10 11 12 13 13 13 15 15 15 16 16 15 15 17 18 17 17 14 8 10 15 13 12 16 17 14 12 11 9 7 6 6
22 20 18 17 15 13 12 12 13 12 12 11 10 8 7 6 6 7 8 9 10 10 9 8 8 8 8 9 10 11 13 13 12 12 13 13 12 12 13 14 16 16 15 17 18 19 20 22 19 12 13 15 11 10 15 16 15 13 11 9 8 5 5
23 20 18 17 16 14 13 13 13 13 13 13 12 10 8 7 8 8 8 9 9 10 10 8 9 10 10 10 10 11 14 15 14 13 14 14 12 12 13 14 15 16 17 18 20 21 20 21 21 17 14 11 11 13 13 15 17 15 13 11 9 5 3
22 20 18 17 17 15 13 12 13 14 15 16 14 12 9 9 11 11 9 8 10 11 11 10 12 13 11 11 12 14 15 16 14 14 14 14 13 12 12 14 15 16 17 19 21 20 19 20 22 22 19 11 7 8 9 12 16 17 17 15 9 4 2
20 20 19 17 17 15 12 12 15 17 18 16 14 13 11 10 12 11 9 10 10 9 10 12 14 13 12 14 15 15 16 15 14 13 12 12 12 11 10 12 14 15 16 16 17 17 17 19 19 22 24 19 10 5 4 6 9 12 16 16 9 3 3
20 20 20 18 17 15 13 14 17 18 17 15 13 13 12 11 12 11 11 11 9 9 11 12 12 12 12 14 15 15 15 15 15 15 13 14 16 16 15 14 14 15 13 12 13 14 14 15 16 20 25 26 19 9 4 3 4 7 12 13 10 7 6
20 20 20 18 17 16 15 15 17 17 15 13 13 14 13 12 12 12 13 12 11 12 13 12 12 11 10 12 14 15 15 15 15 14 13 15 18 19 20 19 18 16 14 14 16 18 17 16 14 14 20 26 26 17 11 6 3 7 13 12 10 11 10
20 21 20 18 17 17 16 16 17 16 14 14 15 16 15 14 13 14 15 13 12 13 12 12 12 10 10 12 14 14 14 15 15 14 14 15 16 17 19 19 18 17 15 16 20 21 20 19 18 15 13 22 27 25 22 16 5 6 13 12 11 12 12
20 21 21 19 17 17 16 16 16 15 15 16 17 17 15 15 15 15 15 13 14 15 13 12 12 11 12 12 12 13 14 14 15 16 17 16 16 16 17 17 16 16 16 17 19 19 18 17 17 17 14 18 25 25 25 21 11 7 12 14 14 13 11
20 21 20 18 17 17 16 16 16 15 16 17 17 17 16 15 15 15 14 14 15 16 14 12 13 13 14 13 12 13 14 15 16 17 17 17 17 16 16 16 16 15 16 17 16 14 14 15 18 18 16 18 23 21 19 20 18 12 12 13 13 12 11
19 19 18 17 17 17 16 16 15 15 17 17 17 17 15 14 15 14 14 14 14 15 14 14 14 14 15 15 14 15 15 16 17 17 18 18 18 17 17 17 15 14 14 15 14 11 11 14 17 19 18 17 18 16 14 18 20 16 14 14 12 11 10
18 18 17 17 17 17 17 16 15 16 16 15 16 16 14 13 13 13 14 14 13 14 14 13 13 15 15 14 15 16 16 15 17 18 19 18 17 17 17 16 15 14 14 15 14 12 13 16 16 17 17 17 17 15 13 16 19 18 17 16 13 11 9
18 18 17 15 16 18 17 16 15 15 15 14 14 14 14 12 12 13 15 14 13 14 14 12 14 16 14 12 17 20 18 16 18 19 19 17 16 15 16 15 14 14 16 18 18 15 14 14 13 12 13 13 15 15 13 13 14 16 18 17 15 12 9
17 17 16 13 15 17 15 15 15 14 13 13 12 12 14 12 11 14 15 13 14 15 14 12 15 16 13 13 19 21 19 18 19 19 17 16 15 15 15 15 14 14 15 16 16 14 12 11 10 10 9 9 12 14 13 11 10 13 16 17 18 14 10
11 13 14 12 14 16 14 14 15 13 12 12 10 11 13 12 11 13 13 13 15 15 14 13 16 17 15 14 18 20 19 17 17 18 18 16 15 14 13 14 15 15 14 13 13 11 11 11 11 11 10 9 10 11 11 10 10 11 13 16 19 16 12
11 11 11 13 15 15 14 14 14 12 11 11 10 10 12 11 11 12 12 13 15 14 13 14 16 17 17 16 17 18 18 16 14 16 18 16 15 14 13 14 15 14 13 12 11 12 12 12 13 13 12 11 10 9 8 7 7 8 9 11 13 13 11
14 9 8 11 13 13 13 13 13 12 11 12 10 9 11 10 10 11 10 11 15 15 14 15 17 17 17 17 17 18 18 16 14 15 17 16 15 14 13 12 12 12 13 12 12 13 14 13 13 14 13 12 10 10 9 6 4 4 4 4 3 4 10
14 10 8 10 11 11 11 11 12 11 10 12 12 9 10 10 8 9 9 9 13 16 15 16 18 17 16 17 17 17 18 18 16 16 16 16 16 15 14 14 13 14 14 13 13 13 13 13 12 11 11 12 12 11 10 8 6 5 3 1 4 4 5
13 10 8 8 8 8 9 9 11 10 8 10 12 11 10 10 9 9 10 8 10 16 18 17 18 18 16 17 18 17 17 18 17 17 16 17 17 17 17 16 15 16 16 15 14 14 13 12 11 11 10 11 13 13 12 10 8 6 4 2 2 3 6
7 5 5 6 6 5 6 7 10 11 9 7 10 11 11 10 9 10 12 11 9 13 18 20 19 19 18 18 19 19 18 17 17 16 16 17 18 19 19 18 17 18 18 17 16 15 14 13 12 12 12 12 13 14 14 12 10 8 5 3 3 4 8
6 3 2 2 2 2 4 6 7 10 10 7 6 8 10 11 10 10 12 14 12 12 15 18 19 19 20 20 19 20 19 18 17 17 17 17 18 20 21 21 19 19 18 17 17 16 15 14 14 15 15 13 13 13 13 13 11 9 7 6 5 6 9
7 5 3 3 3 1 4 6 5 7 9 8 7 7 9 11 12 11 11 13 14 14 14 15 16 16 19 20 19 19 19 18 18 19 18 18 19 21 22 21 20 19 19 18 17 17 16 16 16 16 16 16 14 13 12 12 11 10 9 9 8 7 8
13 8 6 5 5 5 7 6 5 5 6 8 9 10 10 12 14 14 14 14 15 17 17 17 16 16 18 19 19 18 17 15 16 19 20 18 19 20 21 20 19 19 19 19 18 18 18 18 18 17 17 18 17 15 14 13 13 12 10 10 8 6 6
21 19 15 12 8 4 1 3 4 5 5 6 7 9 10 11 13 15 17 17 18 20 21 21 21 20 20 20 20 20 18 15 13 16 19 20 19 18 19 21 22 21 21 20 19 19 19 20 20 18 18 19 18 16 15 13 12 11 10 10 9 7 6
20 20 19 19 18 16 13 9 5 4 6 6 7 8 9 10 12 14 15 17 18 20 22 22 23 23 23 24 24 24 23 20 17 16 16 18 20 21 20 21 23 24 24 23 22 22 22 22 21 18 18 19 19 17 15 12 11 10 9 9 9 8 7
19 19 18 18 18 17 16 14 13 11 9 8 8 9 10 12 13 13 14 16 17 19 21 22 23 23 24 24 26 26 27 26 23 19 16 16 19 20 21 21 22 23 23 24 24 25 25 23 21 18 18 17 16 15 13 12 10 10 9 9 9 7 6
17 18 17 17 17 17 16 15 14 14 13 13 12 11 12 13 15 15 16 18 18 19 20 20 20 22 23 24 26 27 28 28 25 21 18 18 18 19 20 22 23 22 22 23 26 26 24 23 21 18 16 16 16 15 14 13 12 12 11 9 7 5 3
17 18 19 19 18 18 17 17 16 16 16 16 15 15 16 15 15 17 18 20 21 21 20 19 19 21 22 23 25 27 28 29 27 23 20 20 19 18 18 21 23 23 24 26 27 25 22 22 20 17 17 18 18 17 14 12 12 12 11 8 6 4 1
18 19 20 20 20 19 19 19 19 20 19 20 20 20 20 19 19 19 19 20 22 24 23 22 20 21 22 23 25 27 28 28 29 28 24 22 21 21 22 22 23 24 26 28 27 23 20 19 17 16 18 19 17 15 13 12 11 11 9 7 4 1 3
19 20 21 21 21 21 20 20 20 21 22 22 23 23 23 23 23 23 21 20 20 22 25 25 23 21 22 23 25 27 27 28 29 29 26 25 25 25 24 23 23 25 28 29 26 23 20 19 17 17 18 17 15 15 14 13 12 11 8 5 3 4 4
19 20 20 21 22 23 22 22 21 21 22 23 24 25 25 25 26 26 26 24 23 23 24 25 24 22 22 23 25 26 28 28 28 27 26 26 26 26 26 26 25 26 27 27 24 22 21 21 20 19 19 18 16 15 14 14 13 11 8 5 5 5 4
19 20 20 20 21 22 23 23 23 23 23 23 24 24 25 25 25 26 26 26 26 26 24 25 25 23 22 23 25 26 27 27 26 25 26 26 26 26 26 24 22 21 22 22 22 22 22 22 20 18 18 18 17 15 15 15 13 10 7 5 5 3 2
19 20 21 21 22 23 23 24 24 24 24 25 25 25 25 24 23 24 25 26 27 26 24 25 25 24 23 24 26 27 25 24 24 24 24 25 26 27 24 20 18 19 21 22 22 22 22 21 20 19 20 19 17 16 15 13 10 8 7 6 4 3 4

ECMWFFLT1_925_spd_036.txt.gz
Wind_Speed
24 22 22 20 17 15 13 10 8 8 8 8 7 7 7 6 5 5 4 3 2 3 4 3 3 3 5 7 9 9 9 9 10 12 16 18 16 11 8 8 7 13 18 14 12 12 7 3 5 6 8 9 11 13 13 13 13 12 11 10 9 9 9
23 23 22 20 18 17 15 12 9 8 8 7 7 7 6 6 6 6 5 2 2 4 5 4 4 4 5 6 9 9 9 10 10 11 14 18 18 14 12 12 14 17 16 12 15 16 10 6 4 2 6 9 9 11 13 14 15 13 12 11 11 10 9
24 23 22 21 20 18 16 14 11 10 9 8 8 8 7 7 7 8 5 3 5 7 6 5 5 6 7 8 9 10 10 10 10 10 12 16 17 15 14 16 19 19 13 9 13 15 11 8 5 5 9 10 9 10 14 17 16 13 12 11 10 10 9
25 24 24 23 20 18 17 16 14 13 12 10 10 9 8 8 7 8 8 7 8 8 5 5 5 6 8 9 10 10 11 10 10 10 11 14 16 15 15 17 21 22 18 14 16 18 14 9 8 7 9 14 14 15 18 19 17 15 13 11 10 10 9
25 26 26 23 20 19 18 18 16 15 13 11 11 9 9 8 7 8 10 11 10 9 6 4 4 5 7 9 9 10 11 11 11 11 11 14 16 16 16 17 20 21 21 22 23 21 20 20 17 10 10 16 14 14 21 21 17 16 13 10 10 10 10
25 25 24 22 19 18 18 18 16 14 13 11 10 9 8 7 8 9 10 10 10 10 8 6 4 6 7 8 8 9 10 10 11 10 11 12 13 15 16 17 19 16 18 25 25 22 24 26 22 13 12 15 13 14 18 18 16 14 11 9 8 9 10
24 22 21 20 19 17 16 16 14 13 12 10 9 8 8 8 9 10 9 9 10 10 10 7 6 6 7 7 7 8 8 8 8 8 9 10 10 13 15 17 18 15 17 24 24 25 28 26 23 19 14 11 14 16 13 13 15 11 9 9 7 8 8
21 19 19 19 18 15 14 13 13 13 12 11 9 9 9 9 10 10 10 9 9 10 10 8 7 8 7 8 7 8 8 8 7 7 8 9 9 11 13 16 18 15 18 23 24 26 28 26 26 27 21 11 8 8 8 10 11 9 11 11 7 6 7
20 18 18 18 16 14 13 13 14 14 13 12 12 11 10 11 11 10 9 9 9 10 11 9 8 8 8 9 9 10 10 9 9 8 8 8 8 9 10 13 16 16 17 21 23 24 25 27 29 30 29 21 10 4 4 5 4 5 11 12 7 5 6
19 17 17 17 16 14 12 13 14 15 15 14 13 13 12 12 12 11 10 9 9 11 12 10 8 9 10 11 11 11 11 9 8 8 7 7 7 7 8 9 13 17 18 20 21 21 23 26 27 27 27 27 21 10 3 3 3 6 10 9 7 7 7
19 16 17 16 15 14 12 13 16 17 16 15 14 13 12 13 12 11 11 10 11 13 13 11 10 10 12 13 13 12 10 9 8 7 6 7 7 7 7 8 11 14 18 19 19 18 20 22 24 23 21 23 27 20 11 6 4 7 13 11 8 9 11
18 16 16 16 16 14 12 14 17 18 16 14 13 12 13 13 12 11 12 12 13 14 13 11 11 12 12 13 13 12 11 10 10 9 9 10 10 10 10 9 11 13 16 18 17 16 18 20 22 21 20 21 24 24 23 16 5 8 16 13 10 11 13
19 18 17 16 15 13 12 15 17 16 14 12 12 12 13 13 12 12 14 14 13 13 12 11 12 12 13 13 13 13 11 11 12 13 14 15 15 14 14 13 14 16 18 18 16 15 16 20 23 22 21 23 22 21 25 20 9 9 15 14 12 13 12
18 18 17 15 14 13 13 15 15 13 12 11 12 13 12 12 12 13 15 13 12 12 12 11 11 12 14 14 14 13 12 13 15 17 17 16 16 16 17 18 19 20 22 21 20 18 15 16 21 25 25 24 22 21 22 20 14 12 13 13 14 13 12
20 19 18 15 14 14 14 14 14 11 11 12 12 12 11 11 13 14 14 13 12 11 11 11 11 12 14 14 14 13 13 15 16 17 17 16 16 16 17 19 20 20 21 22 20 18 15 13 14 20 26 26 24 22 22 19 17 15 12 14 16 14 13
16 18 19 16 14 14 14 14 13 11 11 13 13 12 11 11 12 12 12 14 14 12 11 11 12 13 14 13 14 14 14 15 16 16 16 17 18 18 18 18 18 18 19 19 19 16 14 13 13 16 22 26 24 23 20 17 16 16 16 16 17 16 15
11 13 15 15 15 14 13 14 12 11 13 15 15 15 13 12 12 12 12 13 14 13 12 12 12 13 12 12 13 15 17 17 16 17 18 18 18 18 19 18 16 16 17 17 18 17 15 14 15 18 21 23 22 20 18 16 15 17 19 18 17 17 16
13 10 8 11 14 13 12 13 12 12 14 16 17 16 14 14 13 13 13 12 12 13 12 11 11 12 12 12 13 15 17 17 16 17 17 16 17 18 18 17 16 16 16 16 17 17 16 16 16 17 18 18 18 17 16 16 16 17 20 21 19 17 17
11 8 7 10 12 12 13 13 13 13 14 15 16 16 15 15 15 14 14 12 12 13 12 10 12 13 12 13 15 15 15 16 16 17 17 16 16 16 15 16 16 15 15 16 17 17 17 16 15 15 16 16 17 17 17 17 17 17 19 21 20 18 16
9 8 10 11 12 13 13 13 13 14 14 13 13 14 16 16 15 15 15 14 13 14 13 12 13 14 12 13 17 17 15 16 18 18 18 17 16 15 14 15 16 16 16 16 18 18 17 16 16 15 15 16 17 17 18 18 18 18 20 20 19 18 17
12 11 11 12 14 15 13 12 13 12 13 14 13 13 16 16 13 15 16 15 15 16 15 13 14 14 13 15 19 19 17 18 19 19 18 18 17 15 15 16 16 17 17 17 18 18 17 18 18 16 17 18 18 18 17 17 17 18 20 20 19 19 17
15 13 11 11 13 13 12 11 11 12 13 13 11 12 16 15 12 14 17 17 16 18 16 14 14 16 15 16 19 20 19 18 18 19 19 18 18 17 16 17 18 18 18 17 16 16 16 17 18 18 18 20 19 18 17 16 16 16 18 18 17 18 16
10 8 6 7 8 11 12 9 7 11 14 14 12 11 13 13 10 12 16 17 18 20 19 16 16 17 17 18 18 19 21 19 17 19 21 20 19 18 17 17 17 17 17 17 16 15 15 16 17 17 19 20 19 18 18 17 16 16 16 17 15 15 14
6 4 4 6 9 11 13 11 8 7 8 11 14 13 12 12 11 11 12 13 14 19 22 20 19 19 19 19 19 20 21 21 18 18 21 22 21 20 19 19 18 17 18 18 17 17 17 17 17 17 19 19 18 18 19 19 18 16 15 15 14 13 13
4 2 2 4 7 6 7 11 11 9 5 5 9 11 11 11 12 11 11 11 10 14 19 22 22 22 21 21 20 20 22 22 21 20 21 22 21 21 21 21 21 20 20 20 20 19 19 18 18 17 17 18 18 18 19 19 19 18 17 15 14 13 14
10 7 6 3 1 2 5 9 11 9 5 2 2 4 6 8 9 10 10 10 10 10 13 19 21 22 24 24 24 23 23 24 24 24 24 23 23 23 24 23 23 23 23 23 23 22 22 21 20 18 17 17 18 18 18 18 18 18 17 16 15 15 15
19 16 14 13 12 9 6 2 2 4 3 3 5 5 5 5 7 9 10 11 11 10 10 13 16 18 21 24 25 26 26 27 27 27 27 26 26 26 26 27 27 26 27 26 26 26 25 24 22 21 19 18 18 18 18 17 17 17 16 16 15 15 14
20 19 18 17 17 17 15 13 12 9 5 3 6 6 6 6 8 9 11 12 14 16 15 13 13 14 16 19 22 24 24 26 27 29 29 29 29 28 29 30 31 31 31 29 28 28 28 27 26 23 21 21 20 19 19 18 17 16 14 13 13 12 13
19 19 18 17 17 17 17 16 15 13 10 7 6 5 5 5 7 10 11 12 13 16 18 18 17 17 17 18 20 21 22 22 23 25 27 29 29 30 31 32 33 33 33 32 31 30 29 29 28 25 23 22 22 21 20 19 18 15 13 11 10 10 12
20 19 19 19 19 19 18 17 16 15 13 12 11 10 10 9 8 9 11 13 14 15 15 16 17 18 18 20 21 22 23 23 23 24 25 25 27 29 32 32 32 30 28 29 31 30 29 30 27 24 23 24 23 21 20 19 18 15 11 11 11 11 12
21 21 21 21 21 21 20 19 18 17 16 16 15 14 13 12 11 10 11 12 14 17 18 17 17 17 18 19 21 22 23 25 25 25 25 25 25 27 29 30 33 32 29 30 31 30 29 31 28 25 27 27 24 22 21 19 17 15 12 12 13 13 12
20 20 20 21 21 21 21 20 19 18 18 18 17 17 16 15 14 13 13 13 14 15 18 19 20 20 20 20 21 22 23 24 25 26 26 27 27 27 27 28 31 33 32 33 34 31 31 33 31 29 29 28 25 24 23 21 20 18 17 16 15 13 11
18 18 19 18 18 19 19 19 20 20 20 20 20 19 18 18 18 17 16 16 17 17 18 19 20 21 22 23 24 25 25 25 26 27 28 28 27 28 29 30 31 32 33 33 33 32 33 35 34 31 30 29 29 27 25 22 21 20 20 18 15 12 11
17 17 17 17 17 17 18 18 18 19 19 19 19 19 19 19 20 20 19 19 19 18 19 20 20 21 22 24 26 29 29 28 28 28 28 28 28 29 31 33 34 35 34 33 33 32 33 35 34 32 32 32 31 26 23 22 21 20 19 18 15 14 13
17 17 17 18 17 17 16 15 15 16 17 17 17 17 17 17 19 20 19 19 19 18 18 18 19 21 22 23 25 30 32 30 28 27 26 26 27 29 31 33 35 35 34 33 33 34 34 34 32 32 33 31 27 22 21 23 23 21 19 18 17 16 14
17 17 17 18 17 17 17 16 15 15 17 18 17 17 17 17 18 19 20 19 19 19 19 18 19 20 22 22 24 28 32 32 30 28 26 25 26 27 28 31 33 34 33 34 35 35 34 33 32 32 30 27 23 21 23 26 26 23 21 19 17 17 16
16 16 16 17 17 18 19 19 18 18 18 18 18 18 18 19 19 21 22 22 21 20 20 20 20 20 22 22 23 27 32 34 32 29 27 26 25 24 25 27 30 32 33 35 35 34 32 32 31 28 26 25 24 23 25 28 26 23 22 20 19 19 18

ECMWFFLT1_925_spd_042.txt.gz
Wind_Speed
20 18 15 14 13 13 13 11 10 10 9 8 8 8 7 7 6 5 6 7 7 8 8 9 9 8 9 11 13 13 12 12 11 13 16 14 14 13 8 5 1 3 11 10 9 11 6 3 6 9 11 13 13 12 12 11 11 11 11 11 11 11 12
17 16 15 14 14 14 13 12 11 11 10 9 8 8 8 7 6 6 5 6 7 7 8 8 9 9 10 10 12 13 12 12 11 11 13 13 15 14 10 7 4 7 9 7 10 13 9 5 4 4 8 11 12 11 11 11 10 10 11 11 11 12 11
16 15 15 14 14 13 12 12 13 13 11 9 8 8 7 6 6 5 4 4 5 6 7 8 9 10 11 11 11 12 11 12 12 11 11 11 13 14 12 10 10 12 9 6 10 13 10 8 6 6 7 8 8 8 9 10 9 9 9 10 10 11 10
16 16 16 16 16 15 14 15 15 14 13 11 10 9 7 6 5 4 3 3 4 6 7 7 8 9 10 10 10 11 11 11 11 11 10 10 12 14 13 11 12 13 11 9 14 16 14 12 9 7 7 8 8 7 8 9 8 8 8 9 9 9 9
16 17 18 18 18 18 17 17 16 16 14 13 11 10 8 6 4 2 2 3 4 7 6 5 6 7 8 9 9 10 11 11 11 11 11 11 11 14 14 12 11 12 12 12 17 19 18 20 18 10 8 11 8 6 9 9 7 8 8 8 8 8 8
17 18 19 19 19 19 18 18 17 16 15 13 12 10 8 6 4 2 3 3 4 7 5 3 4 5 7 8 9 10 10 11 11 10 10 10 10 12 15 13 11 12 12 10 14 18 19 25 24 14 9 9 6 7 8 7 7 7 7 7 7 8 8
18 19 19 19 19 19 17 17 16 15 14 12 11 10 8 6 4 3 3 3 4 5 4 2 2 4 5 6 8 9 9 9 10 9 9 8 9 11 14 13 11 11 10 8 12 17 20 25 25 19 13 7 7 9 5 4 7 6 5 7 7 8 9
20 20 20 19 18 18 17 16 15 13 12 11 10 8 6 6 5 4 4 3 3 4 2 0 1 2 3 4 5 6 7 8 9 9 8 7 7 10 13 13 10 10 9 8 12 16 20 24 25 27 22 10 5 5 2 3 6 4 5 7 8 10 11
20 20 20 19 18 17 16 14 13 11 10 9 8 7 5 5 5 4 4 3 3 4 2 1 2 2 1 2 3 5 6 7 7 7 6 6 6 8 11 12 11 10 8 8 12 16 19 24 26 29 29 21 11 4 1 2 3 3 7 9 8 11 13
20 19 19 19 18 17 15 14 12 11 10 8 7 6 5 5 5 4 2 1 2 3 2 1 3 3 2 2 2 3 5 5 5 5 5 4 5 7 10 11 11 10 8 7 12 16 19 24 26 28 28 24 19 11 3 2 4 6 10 11 9 11 15
19 18 18 18 17 16 16 14 11 10 10 8 6 5 4 5 5 3 1 0 2 4 3 1 3 4 3 2 2 2 2 2 2 4 4 4 5 6 8 10 11 11 9 9 13 16 20 23 25 27 25 19 19 18 11 5 5 9 13 14 11 12 16
19 18 17 17 16 15 15 13 11 10 9 8 7 5 5 5 6 4 1 0 2 5 4 1 3 4 3 2 1 1 0 0 1 3 3 4 4 5 6 9 11 11 10 11 13 15 19 23 24 26 23 16 16 19 19 13 5 9 16 16 13 14 17
19 18 16 16 15 14 12 11 10 10 9 8 7 6 6 6 6 5 2 1 3 5 4 1 3 3 3 3 1 1 1 1 1 2 4 4 5 4 5 7 9 11 12 13 14 16 19 21 22 23 20 16 15 15 19 17 9 8 16 16 13 15 16
19 17 16 15 14 12 11 9 10 10 9 8 7 6 6 7 7 5 2 2 4 6 4 1 3 3 2 2 2 2 2 3 2 2 3 4 4 4 4 5 8 12 13 13 15 17 19 19 19 20 17 15 17 16 16 16 10 9 15 15 13 14 16
18 16 15 15 13 11 10 10 10 11 9 8 7 6 6 7 6 5 4 4 6 6 3 0 2 3 2 2 2 2 3 3 2 1 2 3 4 4 4 5 9 13 14 14 15 18 19 17 15 18 17 16 19 18 16 13 10 11 14 15 14 15 16
18 16 15 14 13 11 10 10 11 10 8 7 6 6 6 6 5 5 5 5 6 5 3 1 2 2 3 2 1 2 2 2 2 1 2 3 3 1 3 5 8 13 15 15 16 17 18 16 15 18 20 20 20 20 18 15 12 11 16 17 15 16 18
18 16 15 13 12 11 11 11 10 9 7 6 7 6 5 5 5 5 6 6 6 4 2 2 2 2 2 2 1 1 1 1 2 3 3 2 1 1 1 4 8 12 15 16 16 16 16 16 16 18 21 22 22 21 20 18 15 13 16 18 17 17 20
17 16 15 13 12 12 12 11 9 7 7 8 8 7 6 6 5 5 5 5 6 5 3 2 2 2 2 1 1 1 1 2 3 4 3 2 1 1 2 3 7 11 14 15 15 15 15 16 17 18 22 24 24 23 21 20 19 16 15 17 18 18 19
16 16 15 14 14 13 12 11 9 7 7 9 9 8 7 7 5 4 4 4 5 5 4 3 3 2 2 2 3 2 2 4 4 4 4 3 3 3 3 4 7 10 12 14 14 14 15 16 18 20 22 25 25 24 22 21 20 19 15 15 17 19 20
15 16 16 16 15 12 10 8 7 7 7 8 9 7 6 5 4 3 3 2 3 3 4 4 3 3 3 2 2 2 3 5 6 5 4 4 5 6 5 5 6 8 10 11 12 13 13 14 15 17 19 21 23 23 22 20 20 20 17 15 16 18 19
15 16 16 14 12 10 8 6 4 4 6 7 8 7 5 4 3 3 3 3 2 2 3 4 4 4 4 3 3 3 3 4 6 6 4 4 5 6 6 5 5 7 8 10 11 12 12 12 13 13 13 14 16 18 19 19 19 19 18 15 15 17 18
12 13 13 11 10 9 9 7 5 4 5 6 7 7 6 6 6 6 5 4 4 4 4 4 5 5 5 5 5 6 5 4 6 7 6 6 6 6 6 5 5 7 9 11 12 13 13 13 12 12 11 10 11 12 15 17 19 20 19 17 15 15 17
11 11 11 12 11 9 9 9 8 5 3 3 3 4 5 6 7 6 5 4 5 5 5 6 6 6 7 7 7 7 6 5 6 7 7 7 8 9 8 7 7 7 8 10 11 13 13 13 13 12 12 11 11 12 14 17 20 21 20 19 18 17 18
16 14 13 13 12 10 10 10 9 7 5 4 3 2 1 1 0 1 1 1 2 3 4 6 7 8 9 9 8 8 8 7 7 7 8 7 8 9 10 10 10 10 10 10 11 12 13 13 13 13 13 14 14 15 16 18 21 22 22 21 20 20 21
18 17 14 12 12 10 10 9 8 7 6 6 6 5 5 6 5 4 3 2 2 3 4 4 6 8 10 11 11 10 9 9 9 9 10 10 10 11 12 12 12 13 13 13 13 13 14 14 13 13 14 15 16 17 18 19 21 22 23 22 22 22 23
21 20 16 14 12 11 10 9 8 6 6 6 6 6 6 7 6 6 5 5 5 5 5 5 5 5 6 8 10 11 12 12 13 13 13 13 13 13 14 14 15 15 15 15 15 15 15 15 15 15 15 16 17 18 19 20 21 22 22 23 25 25 25
25 24 22 20 18 16 15 14 12 10 9 8 8 9 9 9 9 8 7 7 7 6 6 5 5 4 5 5 6 8 10 12 14 15 16 17 17 17 17 17 17 17 17 17 17 17 17 17 17 17 17 17 17 18 19 20 21 21 21 22 24 25 25
27 25 24 23 22 21 20 18 16 15 13 12 12 12 12 12 12 11 10 9 8 8 7 6 5 4 4 5 5 6 8 9 11 13 15 17 18 19 20 20 21 21 20 20 20 20 21 21 21 21 20 20 20 20 20 20 21 22 23 24 25 25 25
25 24 23 22 22 21 20 18 17 15 14 14 13 12 12 12 13 12 11 10 9 10 10 8 7 6 5 6 7 8 9 10 11 12 13 14 16 18 19 21 22 23 23 23 24 24 24 24 23 23 23 23 22 22 22 21 22 23 24 25 26 26 25
23 22 22 21 21 20 18 17 17 15 14 13 13 13 13 12 12 12 11 10 10 10 11 11 10 9 8 7 7 8 9 10 12 13 15 16 17 17 18 19 20 21 22 23 23 24 25 24 24 24 24 25 25 25 25 25 25 25 25 26 26 26 24
21 21 21 20 19 17 16 15 15 14 13 13 13 13 12 12 11 11 11 11 10 10 11 11 11 11 10 10 10 10 10 11 11 12 14 16 17 18 18 18 18 20 21 21 21 23 24 24 24 24 25 25 27 27 27 28 28 27 27 26 24 21 19
19 19 19 18 17 16 15 14 13 12 12 12 12 12 12 12 12 12 12 12 11 11 11 11 11 11 12 12 12 12 13 14 14 14 15 16 16 17 18 18 18 18 19 20 21 22 23 23 23 23 24 25 26 27 28 29 29 28 27 25 21 19 21
18 18 17 15 15 14 13 12 12 12 12 12 12 12 12 13 13 13 12 12 12 12 12 12 11 11 12 13 13 13 14 14 15 16 17 17 18 18 18 18 18 18 18 19 19 21 23 24 23 22 22 22 24 25 25 26 26 25 25 23 19 18 21
17 16 16 14 14 13 13 12 12 12 13 13 13 13 14 15 15 14 14 13 13 13 13 13 13 12 12 12 13 14 14 14 14 15 16 17 18 19 20 20 20 19 19 19 19 20 22 24 25 24 23 23 23 23 23 23 23 21 21 21 18 18 19
16 16 15 14 14 14 13 13 13 13 14 14 15 15 16 16 17 17 16 15 14 14 14 14 14 14 13 12 13 14 14 14 14 16 17 18 19 20 21 22 22 21 20 19 19 19 20 21 23 24 24 24 23 22 22 22 21 20 19 18 18 20 22
17 16 15 14 14 14 14 13 14 15 15 16 16 16 17 17 18 19 18 18 17 16 16 15 15 15 15 14 14 15 15 15 15 16 17 18 19 20 21 22 23 22 22 21 19 18 19 19 21 21 22 21 20 20 21 21 21 21 21 20 21 23 25
17 16 16 15 15 15 15 15 15 16 16 17 17 17 18 18 18 19 20 21 20 20 19 19 18 17 17 16 16 16 17 18 17 17 17 18 19 19 20 20 20 21 21 22 20 19 19 19 20 21 21 20 19 18 19 20 21 21 22 23 24 25 25

ECMWFFLT1_925_spd_045.txt.gz
Wind_Speed
17 15 15 16 15 15 15 14 12 11 10 9 9 8 7 7 8 7 7 6 5 5 4 5 5 5 5 6 6 7 7 8 8 8 10 11 10 7 5 2 2 6 8 7 8 8 7 5 5 6 9 11 12 11 11 11 11 9 8 9 9 9 10
19 18 17 17 17 17 17 16 14 13 11 10 10 10 9 8 8 7 7 7 6 5 5 4 4 4 5 5 5 7 7 7 7 7 7 9 9 7 7 4 4 7 6 4 7 8 7 8 6 5 8 10 11 10 11 11 10 9 9 10 10 10 10
21 21 19 18 18 18 17 16 15 14 12 11 10 11 10 8 8 8 7 7 6 6 6 5 5 5 5 5 5 6 6 7 7 7 7 7 8 8 8 7 6 7 6 5 8 8 7 8 7 8 10 10 10 8 7 9 9 9 10 10 11 10 10
23 22 20 20 19 18 18 17 16 14 12 11 10 10 9 9 8 8 7 6 6 7 6 5 5 5 6 6 6 6 6 7 7 8 7 6 7 9 9 9 7 8 7 6 8 10 8 8 9 10 11 11 10 8 6 8 8 9 9 10 10 10 10
24 23 22 22 21 20 19 18 17 15 13 11 10 10 9 9 8 6 5 5 6 7 6 5 4 4 5 6 6 6 7 7 7 7 8 7 7 8 9 10 8 7 8 6 7 10 8 9 12 12 12 12 9 8 8 8 8 8 8 9 9 9 8
23 23 23 23 22 21 20 20 18 16 14 12 11 10 9 8 7 5 4 4 5 7 6 5 4 3 5 5 6 7 6 7 8 7 7 7 8 7 8 10 8 7 8 7 8 9 8 10 13 13 13 11 9 9 9 8 8 7 7 7 7 7 7
21 22 22 23 22 21 20 19 18 16 15 13 12 11 9 8 6 5 4 5 7 7 6 4 3 2 4 5 6 6 6 7 7 7 7 6 7 7 7 8 9 8 8 8 8 11 11 12 13 14 14 11 9 10 9 7 8 7 6 6 6 7 8
20 21 21 22 22 21 19 18 17 16 14 13 11 10 9 8 6 5 5 7 8 7 6 4 3 2 2 3 4 4 5 5 5 6 6 6 6 6 6 8 8 9 9 8 9 11 13 13 14 16 16 12 7 7 7 8 7 6 7 7 6 7 10
19 21 22 22 21 19 17 17 16 15 13 12 11 10 9 8 7 6 6 7 7 7 5 4 4 3 3 3 2 3 3 4 4 4 4 5 5 6 7 8 8 8 8 8 9 12 13 15 16 17 17 14 9 6 5 6 6 6 7 8 7 7 11
20 21 22 22 21 18 17 16 15 14 13 12 11 10 9 9 8 8 7 7 6 6 5 5 5 4 3 3 3 3 3 3 3 3 4 4 5 5 7 8 8 7 8 8 10 13 15 17 18 17 15 12 9 7 6 5 5 7 8 7 7 9 12
20 22 22 21 20 19 17 16 15 14 14 12 10 9 9 9 9 8 8 7 7 8 7 6 6 5 3 3 3 3 3 3 3 3 4 4 5 5 6 8 7 7 8 8 9 13 17 20 20 16 13 9 5 6 7 6 5 6 9 8 7 9 13
21 22 22 20 19 18 17 16 16 15 14 12 10 9 9 9 9 8 7 7 8 9 8 7 7 6 5 5 5 5 4 4 4 4 4 4 5 5 6 8 8 7 8 8 10 14 16 19 20 17 15 12 6 5 9 8 6 7 9 9 7 10 13
21 22 21 19 19 17 16 16 15 14 13 11 9 9 8 8 8 7 7 7 8 9 8 7 6 6 6 6 6 6 4 4 3 3 4 5 5 5 6 8 8 9 10 9 10 14 15 17 20 18 17 14 7 6 9 8 7 8 9 10 9 10 14
20 21 20 19 18 17 16 15 14 14 13 11 9 8 8 8 7 6 6 6 8 9 8 6 6 6 6 6 6 6 5 5 3 2 3 4 6 6 6 7 8 10 11 10 12 14 15 17 19 18 17 13 7 6 10 8 7 9 11 12 10 11 15
19 20 19 19 18 17 15 14 13 13 12 10 9 8 8 8 7 6 5 6 8 9 7 6 6 6 6 6 6 6 5 5 4 3 2 2 4 5 6 7 9 12 12 12 13 13 14 16 17 17 17 13 8 8 11 9 7 9 10 12 11 11 16
20 20 20 19 18 16 15 14 13 12 11 10 9 8 7 7 7 6 6 7 9 8 6 5 5 6 6 6 5 5 4 4 4 4 3 3 2 2 4 7 9 12 14 13 13 13 14 16 15 13 14 13 10 11 13 11 8 9 10 11 12 12 15
21 21 20 20 18 17 15 14 13 12 11 10 9 8 7 7 6 6 7 8 9 7 5 5 4 5 5 5 5 5 4 4 3 3 4 4 4 4 2 6 9 12 14 14 14 14 14 16 14 11 12 13 12 13 16 14 9 8 9 11 13 11 13
21 21 21 19 18 17 16 15 14 12 11 11 10 9 8 7 7 7 8 8 8 6 5 4 4 4 5 5 5 4 3 3 3 3 3 3 4 6 4 3 8 12 13 14 15 15 15 16 14 11 11 12 12 13 17 17 11 8 8 10 12 13 13
17 18 19 19 18 18 17 16 14 13 12 12 12 10 10 9 8 8 7 7 7 6 5 4 3 4 4 4 4 3 2 1 2 2 2 2 3 5 6 3 5 10 12 13 14 15 15 15 14 12 12 12 12 13 16 17 14 10 9 9 11 14 15
16 17 18 19 20 19 18 16 14 13 12 12 12 11 10 9 8 7 7 6 6 6 5 4 3 4 4 4 4 4 3 2 1 1 1 2 2 3 4 4 2 4 8 11 12 13 13 13 13 13 14 14 14 15 16 16 14 12 11 10 10 12 15
20 20 20 20 20 19 17 15 14 13 11 10 9 8 8 7 7 6 6 5 5 4 4 4 4 3 4 4 4 3 3 2 3 2 1 0 0 1 3 2 2 1 2 5 7 8 9 10 10 11 13 14 15 17 16 15 14 13 12 12 12 11 12
21 21 20 19 19 17 16 15 14 13 11 8 6 4 5 5 5 5 4 3 3 3 3 3 3 3 2 3 3 2 2 2 4 4 3 2 2 1 1 1 1 1 0 1 3 4 5 6 7 8 10 10 12 14 14 13 13 12 12 13 12 11 11
20 18 17 16 15 14 13 12 10 8 8 8 5 2 3 4 4 3 3 2 2 2 3 3 4 3 2 2 2 1 1 2 4 5 5 4 4 3 3 2 1 1 1 2 3 4 5 6 7 7 8 8 8 10 11 11 11 11 12 12 12 12 12
17 16 16 16 15 15 14 13 12 11 10 11 9 7 5 5 5 6 6 6 6 5 3 1 2 3 3 2 2 1 0 1 3 4 5 4 4 4 5 4 4 4 3 3 4 5 6 7 8 8 8 8 8 8 9 9 10 10 11 11 10 11 13
19 18 18 17 17 18 18 18 18 17 16 14 13 11 10 10 10 10 10 10 10 9 8 6 3 1 1 2 3 3 2 1 2 2 3 3 3 4 4 5 6 6 6 6 7 7 8 8 9 10 10 10 9 10 11 11 11 12 13 12 11 12 15
22 21 20 20 20 19 19 19 19 18 18 16 15 14 13 13 13 12 12 11 11 10 9 8 7 5 3 2 1 2 3 3 3 4 4 5 5 6 6 7 8 8 9 9 9 10 10 10 11 11 12 12 12 12 12 13 14 15 17 16 14 15 19
23 23 22 21 20 20 20 20 20 19 18 17 17 16 15 14 14 13 13 12 11 10 9 8 7 6 5 4 3 1 1 2 3 5 6 7 7 8 8 8 9 10 10 10 11 12 12 13 13 13 13 14 14 14 14 14 15 16 18 20 19 19 21
27 25 24 22 22 22 22 22 21 20 19 18 18 18 17 16 16 15 14 12 11 10 10 8 6 4 4 3 2 2 1 1 2 3 4 5 6 7 8 9 10 11 11 12 12 12 12 13 14 15 16 16 16 16 16 16 17 18 19 21 21 22 22
26 25 25 24 23 23 22 21 20 19 18 17 17 16 15 15 15 14 13 12 11 11 10 7 6 4 3 3 2 2 2 2 3 3 4 5 6 7 7 8 9 10 11 12 12 12 11 12 14 15 16 17 18 18 19 19 19 20 21 21 22 23 23
24 23 23 23 22 21 20 19 18 17 16 16 15 14 13 13 12 12 11 10 10 9 9 7 6 5 4 4 3 3 3 3 4 4 5 6 6 7 8 9 10 11 13 13 13 12 11 11 13 14 15 17 18 19 20 21 22 22 22 23 23 24 24
22 22 21 21 20 19 18 17 16 15 15 15 14 13 12 11 10 10 9 9 8 8 7 7 6 6 6 6 5 6 6 6 6 7 7 7 7 7 8 9 10 11 13 14 13 13 13 12 12 13 14 14 15 16 18 21 22 22 22 23 23 23 23
20 20 20 19 18 17 16 15 14 13 13 13 12 11 10 10 9 9 8 8 7 6 6 6 6 6 6 6 7 7 7 8 9 9 10 11 11 10 10 10 10 11 12 13 13 13 13 13 12 12 12 12 13 14 16 18 19 19 20 21 20 21 21
19 19 18 16 16 15 14 13 13 12 12 12 11 10 10 9 9 8 8 7 6 6 5 5 5 5 6 6 6 7 7 8 9 10 11 12 13 13 13 13 12 12 13 13 14 15 15 15 15 13 11 12 15 16 16 16 17 16 17 18 18 19 19
18 17 16 15 14 14 14 13 12 12 12 11 10 10 9 9 9 8 8 7 7 7 6 5 5 5 6 7 7 7 7 7 8 10 11 12 12 13 14 14 14 14 14 15 15 15 16 16 16 16 15 16 18 18 16 15 16 16 16 17 17 17 17
16 16 15 14 14 14 13 12 11 11 11 10 10 10 10 10 9 8 8 8 8 8 8 7 7 6 6 7 7 6 7 8 9 9 10 10 9 10 11 13 14 15 15 16 16 17 17 17 16 17 18 18 18 18 17 16 17 17 17 17 17 17 17
15 14 13 13 13 12 12 11 12 12 12 11 10 10 10 10 9 8 8 8 9 10 10 10 9 8 8 7 8 7 8 8 9 10 10 10 10 11 11 11 13 14 15 15 16 17 18 19 19 19 19 18 17 17 17 17 17 18 19 20 19 19 19
13 12 12 12 11 12 12 11 11 12 12 11 9 8 9 9 9 8 8 8 9 11 13 13 12 11 10 9 9 9 9 10 11 11 12 12 13 13 13 14 14 15 15 16 17 17 18 20 21 21 21 19 17 17 18 18 18 19 20 21 21 20 21